Weather in Sedlistoye

Russia / Astrakhan Oblast     45°49′03″N   47°39′53″E
temp.,
°C
wind,
m/s
gust,
m/s
humid.,
%
clouds,
%
prec.,
mm/h
press.,
hPa
HPBL,
m
7 august, sun
sun701:00+22wsw336396 0.0 101234
04:00+21w33685 0.0 101235
07:00+23nw35615 0.0 1012154
10:00+30n34325 0.0 1011942
13:00+34ese87215 0.0 10103400
16:00+33ese87213 0.0 10102814
19:00+30e57292 0.0 1011728
22:00+23ene34581 0.0 101262
8 august, mon
mon801:00+22ene46620 0.0 101295
04:00+24ne484899 0.0 1012164
07:00+24ne4740100 0.0 1013157
10:00+32ene44255 0.0 10131681
13:00+29sse6739100 0.0 1014551
16:00+32s55226 0.0 10132201
19:00+30s34295 0.0 1013225
22:00+25sw33435 0.0 101426
9 august, tue
tue901:00+23w22425 0.0 101414
04:00+22nw22395 0.0 101413
07:00+24wnw23370 0.0 101448
10:00+32ese01210 0.0 1014749
13:00+34sse56174 0.0 10142177
16:00+34s55184 0.0 10131420
19:00+30se33272 0.0 1014160
22:00+24e48471 0.0 1015129
10 august, wed
wed1001:00+22e35510 0.0 101473
04:00+21ne34550 0.0 101461
07:00+23ne47520 0.0 1014152
10:00+32e45310 0.0 10141175
13:00+35se77241 0.0 10132880
16:00+34ese89300 0.0 10121868
19:00+30e610330 0.0 1012725
22:00+25e410540 0.0 1012192
11 august, thu
thu1101:00+24e411620 0.0 1012205
04:00+25ene513590 0.0 1011312
07:00+28e613560 0.0 1011514
10:00+32se79370 0.0 1012811
13:00+33se913345 0.0 10121065
16:00+32se8113588 0.0 1012900
19:00+29ese611475 0.0 1012518
22:00+26e5125164 0.0 1013276